Time,TemperatureF,DewpointF,PressureIn,WindDirection,WindDirectionDegrees,WindSpeedMPH,WindSpeedGustMPH,Humidity,HourlyPrecipIn,Conditions,Clouds,dailyrainin,SoftwareType,DateUTC
2013-03-30 00:02:00,14.0,12.0,30.09,East,94,0.0,-999.0,93,-99.99,,,-99.99,,2013-03-30 05:02:00,
2013-03-30 00:12:00,14.0,12.0,30.09,East,94,0.0,-999.0,93,-99.99,,,-99.99,,2013-03-30 05:12:00,
2013-03-30 00:22:00,13.0,11.0,30.09,East,94,1.0,-999.0,92,-99.99,,,-99.99,,2013-03-30 05:22:00,
2013-03-30 00:32:00,12.0,10.0,30.09,East,94,0.0,-999.0,92,-99.99,,,-99.99,,2013-03-30 05:32:00,
2013-03-30 00:42:00,12.0,10.0,30.09,East,94,0.0,-999.0,92,-99.99,,,-99.99,,2013-03-30 05:42:00,
2013-03-30 00:52:00,12.0,10.0,30.09,East,94,0.0,-999.0,92,-99.99,,,-99.99,,2013-03-30 05:52:00,
2013-03-30 01:02:00,12.0,10.0,30.09,East,94,0.0,-999.0,92,-99.99,,,-99.99,,2013-03-30 06:02:00,
2013-03-30 01:12:00,12.0,10.0,30.09,East,94,0.0,-999.0,92,-99.99,,,-99.99,,2013-03-30 06:12:00,
2013-03-30 01:22:00,11.0,9.0,30.08,East,94,0.0,-999.0,92,-99.99,,,-99.99,,2013-03-30 06:22:00,
2013-03-30 01:32:00,11.0,9.0,30.09,East,94,0.0,-999.0,92,-99.99,,,-99.99,,2013-03-30 06:32:00,
2013-03-30 01:42:00,11.0,9.0,30.09,East,94,0.0,-999.0,92,-99.99,,,-99.99,,2013-03-30 06:42:00,
2013-03-30 01:52:00,12.0,10.0,30.10,East,94,0.0,-999.0,92,-99.99,,,-99.99,,2013-03-30 06:52:00,
2013-03-30 02:02:00,15.0,14.0,30.09,East,94,0.0,-999.0,94,-99.99,,,-99.99,,2013-03-30 07:02:00,
2013-03-30 02:12:00,15.0,14.0,30.09,East,94,0.0,-999.0,94,-99.99,,,-99.99,,2013-03-30 07:12:00,
2013-03-30 02:22:00,20.0,19.0,30.09,East,83,2.0,-999.0,95,-99.99,,,-99.99,,2013-03-30 07:22:00,
2013-03-30 02:32:00,18.0,17.0,30.09,East,83,2.0,-999.0,94,-99.99,,,-99.99,,2013-03-30 07:32:00,
2013-03-30 02:42:00,18.0,17.0,30.09,East,83,2.0,-999.0,94,-99.99,,,-99.99,,2013-03-30 07:42:00,
2013-03-30 02:52:00,17.0,16.0,30.09,East,83,2.0,-999.0,94,-99.99,,,-99.99,,2013-03-30 07:52:00,
2013-03-30 03:02:00,16.0,14.0,30.09,East,83,2.0,-999.0,93,-99.99,,,-99.99,,2013-03-30 08:02:00,
2013-03-30 03:12:00,16.0,14.0,30.09,East,83,2.0,-999.0,93,-99.99,,,-99.99,,2013-03-30 08:12:00,
2013-03-30 03:21:00,16.0,14.0,30.09,East,83,1.0,-999.0,93,-99.99,,,-99.99,,2013-03-30 08:21:00,
2013-03-30 03:32:00,16.0,14.0,30.09,East,83,1.0,-999.0,93,-99.99,,,-99.99,,2013-03-30 08:32:00,
2013-03-30 03:42:00,16.0,14.0,30.09,East,83,1.0,-999.0,93,-99.99,,,-99.99,,2013-03-30 08:42:00,
2013-03-30 03:52:00,16.0,15.0,30.09,East,83,1.0,-999.0,94,-99.99,,,-99.99,,2013-03-30 08:52:00,
2013-03-30 04:02:00,17.0,16.0,30.09,ENE,78,1.0,-999.0,94,-99.99,,,-99.99,,2013-03-30 09:02:00,
2013-03-30 04:12:00,22.0,21.0,30.09,WNW,301,6.0,-999.0,95,-99.99,,,-99.99,,2013-03-30 09:12:00,
2013-03-30 04:22:00,22.0,21.0,30.09,WNW,301,6.0,-999.0,95,-99.99,,,-99.99,,2013-03-30 09:22:00,
2013-03-30 04:43:00,24.0,23.0,30.09,WNW,299,8.0,-999.0,96,-99.99,,,-99.99,,2013-03-30 09:43:00,
2013-03-30 04:53:00,25.0,24.0,30.09,WNW,298,6.0,-999.0,96,-99.99,,,-99.99,,2013-03-30 09:53:00,
2013-03-30 05:02:00,25.0,24.0,30.09,WNW,298,5.0,-999.0,96,-99.99,,,-99.99,,2013-03-30 10:02:00,
2013-03-30 05:13:00,25.0,24.0,30.09,WNW,298,5.0,-999.0,96,-99.99,,,-99.99,,2013-03-30 10:13:00,
2013-03-30 05:23:00,25.0,24.0,30.09,WNW,300,4.0,-999.0,96,-99.99,,,-99.99,,2013-03-30 10:23:00,
2013-03-30 05:33:00,25.0,24.0,30.09,WNW,297,7.0,-999.0,96,-99.99,,,-99.99,,2013-03-30 10:33:00,
2013-03-30 05:42:00,25.0,24.0,30.09,WNW,297,7.0,-999.0,96,-99.99,,,-99.99,,2013-03-30 10:42:00,
2013-03-30 05:52:00,24.0,23.0,30.09,WNW,291,6.0,-999.0,96,-99.99,,,-99.99,,2013-03-30 10:52:00,
2013-03-30 06:03:00,24.0,23.0,30.09,WNW,296,7.0,-999.0,96,-99.99,,,-99.99,,2013-03-30 11:03:00,
2013-03-30 06:12:00,24.0,23.0,30.09,WNW,296,7.0,-999.0,96,-99.99,,,-99.99,,2013-03-30 11:12:00,
2013-03-30 06:22:00,24.0,23.0,30.09,WNW,291,6.0,-999.0,96,-99.99,,,-99.99,,2013-03-30 11:22:00,
2013-03-30 06:33:00,23.0,22.0,30.09,WNW,298,8.0,-999.0,96,-99.99,,,-99.99,,2013-03-30 11:33:00,
2013-03-30 06:42:00,23.0,22.0,30.09,WNW,298,8.0,-999.0,96,-99.99,,,-99.99,,2013-03-30 11:42:00,
2013-03-30 06:52:00,23.0,22.0,30.09,WNW,302,6.0,-999.0,96,-99.99,,,-99.99,,2013-03-30 11:52:00,
2013-03-30 07:02:00,22.0,21.0,30.09,WNW,300,4.0,-999.0,96,-99.99,,,-99.99,,2013-03-30 12:02:00,
2013-03-30 07:12:00,22.0,21.0,30.09,WNW,300,4.0,-999.0,96,-99.99,,,-99.99,,2013-03-30 12:12:00,
2013-03-30 07:22:00,22.0,21.0,30.10,WNW,298,4.0,-999.0,95,-99.99,,,-99.99,,2013-03-30 12:22:00,
2013-03-30 07:32:00,20.0,19.0,30.10,NW,304,3.0,-999.0,95,-99.99,,,-99.99,,2013-03-30 12:32:00,
2013-03-30 07:42:00,20.0,19.0,30.10,NW,304,3.0,-999.0,95,-99.99,,,-99.99,,2013-03-30 12:42:00,
2013-03-30 07:52:00,18.0,17.0,30.10,NW,308,2.0,-999.0,94,-99.99,,,-99.99,,2013-03-30 12:52:00,
2013-03-30 08:02:00,17.0,16.0,30.10,NW,310,2.0,-999.0,94,-99.99,,,-99.99,,2013-03-30 13:02:00,
2013-03-30 08:12:00,17.0,16.0,30.10,NW,310,2.0,-999.0,94,-99.99,,,-99.99,,2013-03-30 13:12:00,
2013-03-30 08:22:00,19.0,18.0,30.11,WNW,294,5.0,-999.0,95,-99.99,,,-99.99,,2013-03-30 13:22:00,
2013-03-30 08:32:00,19.0,18.0,30.11,WNW,303,6.0,-999.0,95,-99.99,,,-99.99,,2013-03-30 13:32:00,
2013-03-30 08:42:00,19.0,18.0,30.11,WNW,303,6.0,-999.0,95,-99.99,,,-99.99,,2013-03-30 13:42:00,
2013-03-30 08:52:00,20.0,19.0,30.11,NW,306,4.0,-999.0,94,-99.99,,,-99.99,,2013-03-30 13:52:00,
2013-03-30 09:02:00,19.0,18.0,30.10,NW,307,3.0,-999.0,94,-99.99,,,-99.99,,2013-03-30 14:02:00,
2013-03-30 09:11:00,19.0,18.0,30.10,NW,307,3.0,-999.0,94,-99.99,,,-99.99,,2013-03-30 14:11:00,
2013-03-30 09:22:00,19.0,18.0,30.11,NW,304,4.0,-999.0,94,-99.99,,,-99.99,,2013-03-30 14:22:00,
2013-03-30 09:32:00,20.0,19.0,30.11,NW,310,3.0,-999.0,94,-99.99,,,-99.99,,2013-03-30 14:32:00,
2013-03-30 09:42:00,20.0,19.0,30.11,NW,310,3.0,-999.0,94,-99.99,,,-99.99,,2013-03-30 14:42:00,
2013-03-30 09:52:00,21.0,20.0,30.11,WNW,300,4.0,-999.0,94,-99.99,,,-99.99,,2013-03-30 14:52:00,
2013-03-30 10:02:00,21.0,20.0,30.11,WNW,294,6.0,-999.0,95,-99.99,,,-99.99,,2013-03-30 15:02:00,
2013-03-30 10:12:00,21.0,20.0,30.11,WNW,294,6.0,-999.0,95,-99.99,,,-99.99,,2013-03-30 15:12:00,
2013-03-30 10:22:00,21.0,20.0,30.11,WNW,303,6.0,-999.0,95,-99.99,,,-99.99,,2013-03-30 15:22:00,
2013-03-30 10:33:00,22.0,21.0,30.11,WNW,284,6.0,-999.0,95,-99.99,,,-99.99,,2013-03-30 15:33:00,
2013-03-30 10:43:00,22.0,21.0,30.11,WNW,284,6.0,-999.0,95,-99.99,,,-99.99,,2013-03-30 15:43:00,
2013-03-30 10:52:00,23.0,22.0,30.12,WNW,293,8.0,-999.0,95,-99.99,,,-99.99,,2013-03-30 15:52:00,
2013-03-30 11:03:00,24.0,23.0,30.11,WNW,292,10.0,-999.0,95,-99.99,,,-99.99,,2013-03-30 16:03:00,
2013-03-30 11:13:00,24.0,23.0,30.10,West,281,9.0,-999.0,95,-99.99,,,-99.99,,2013-03-30 16:13:00,
2013-03-30 11:23:00,24.0,23.0,30.10,West,281,9.0,-999.0,95,-99.99,,,-99.99,,2013-03-30 16:23:00,
2013-03-30 11:33:00,25.0,24.0,30.11,West,276,11.0,-999.0,94,-99.99,,,-99.99,,2013-03-30 16:33:00,
2013-03-30 11:43:00,25.0,24.0,30.11,West,276,11.0,-999.0,94,-99.99,,,-99.99,,2013-03-30 16:43:00,
2013-03-30 11:52:00,27.0,26.0,30.11,WNW,287,12.0,-999.0,94,-99.99,,,-99.99,,2013-03-30 16:52:00,
2013-03-30 12:02:00,28.0,26.0,30.11,WNW,290,10.0,-999.0,92,-99.99,,,-99.99,,2013-03-30 17:02:00,
2013-03-30 12:13:00,28.0,26.0,30.11,WNW,290,10.0,-999.0,92,-99.99,,,-99.99,,2013-03-30 17:13:00,
2013-03-30 12:22:00,28.0,26.0,30.10,West,278,10.0,-999.0,91,-99.99,,,-99.99,,2013-03-30 17:22:00,
2013-03-30 12:32:00,29.0,26.0,30.11,WNW,293,11.0,-999.0,90,-99.99,,,-99.99,,2013-03-30 17:32:00,
2013-03-30 12:42:00,29.0,26.0,30.11,WNW,293,11.0,-999.0,90,-99.99,,,-99.99,,2013-03-30 17:42:00,
2013-03-30 12:52:00,30.0,27.0,30.10,WNW,295,10.0,-999.0,90,-99.99,,,-99.99,,2013-03-30 17:52:00,
2013-03-30 13:03:00,30.0,27.0,30.10,WNW,290,8.0,-999.0,89,-99.99,,,-99.99,,2013-03-30 18:03:00,
2013-03-30 13:12:00,31.0,28.0,30.09,WNW,288,6.0,-999.0,89,-99.99,,,-99.99,,2013-03-30 18:12:00,
2013-03-30 13:22:00,31.0,28.0,30.09,WNW,288,6.0,-999.0,89,-99.99,,,-99.99,,2013-03-30 18:22:00,
2013-03-30 13:32:00,32.0,29.0,30.09,WNW,284,7.0,-999.0,88,-99.99,,,-99.99,,2013-03-30 18:32:00,
2013-03-30 13:42:00,32.0,29.0,30.09,WNW,284,7.0,-999.0,88,-99.99,,,-99.99,,2013-03-30 18:42:00,
2013-03-30 13:53:00,32.0,29.0,30.09,WNW,292,8.0,-999.0,88,-99.99,,,-99.99,,2013-03-30 18:53:00,
2013-03-30 14:03:00,32.0,29.0,30.09,WNW,290,9.0,-999.0,88,-99.99,,,-99.99,,2013-03-30 19:03:00,
2013-03-30 14:13:00,32.0,29.0,30.09,WNW,290,9.0,-999.0,88,-99.99,,,-99.99,,2013-03-30 19:13:00,
2013-03-30 14:22:00,33.0,30.0,30.09,WNW,300,10.0,-999.0,88,-99.99,,,-99.99,,2013-03-30 19:22:00,
2013-03-30 14:32:00,33.0,30.0,30.09,NW,309,9.0,-999.0,87,-99.99,,,-99.99,,2013-03-30 19:32:00,
2013-03-30 14:42:00,33.0,30.0,30.09,NW,309,9.0,-999.0,87,-99.99,,,-99.99,,2013-03-30 19:42:00,
2013-03-30 14:52:00,34.0,31.0,30.09,NW,305,9.0,-999.0,88,-99.99,,,-99.99,,2013-03-30 19:52:00,
2013-03-30 15:02:00,34.0,31.0,30.09,WNW,298,9.0,-999.0,88,-99.99,,,-99.99,,2013-03-30 20:02:00,
2013-03-30 15:12:00,34.0,31.0,30.09,WNW,298,9.0,-999.0,88,-99.99,,,-99.99,,2013-03-30 20:12:00,
2013-03-30 15:22:00,34.0,31.0,30.09,NW,310,9.0,-999.0,88,-99.99,,,-99.99,,2013-03-30 20:22:00,
2013-03-30 15:32:00,34.0,31.0,30.09,WNW,300,10.0,-999.0,89,-99.99,,,-99.99,,2013-03-30 20:32:00,
2013-03-30 15:42:00,34.0,31.0,30.09,WNW,300,10.0,-999.0,89,-99.99,,,-99.99,,2013-03-30 20:42:00,
2013-03-30 15:52:00,34.0,31.0,30.09,NW,311,7.0,-999.0,89,-99.99,,,-99.99,,2013-03-30 20:52:00,
2013-03-30 16:02:00,34.0,31.0,30.09,NW,310,7.0,-999.0,90,-99.99,,,-99.99,,2013-03-30 21:02:00,
2013-03-30 16:12:00,34.0,31.0,30.09,NW,310,7.0,-999.0,90,-99.99,,,-99.99,,2013-03-30 21:12:00,
2013-03-30 16:22:00,33.0,31.0,30.08,NW,306,6.0,-999.0,91,-99.99,,,-99.99,,2013-03-30 21:22:00,
2013-03-30 16:33:00,34.0,32.0,30.07,West,265,4.0,-999.0,92,-99.99,,,-99.99,,2013-03-30 21:33:00,
2013-03-30 16:43:00,34.0,32.0,30.07,West,265,4.0,-999.0,92,-99.99,,,-99.99,,2013-03-30 21:43:00,
2013-03-30 16:52:00,34.0,32.0,30.05,West,263,3.0,-999.0,91,-99.99,,,-99.99,,2013-03-30 21:52:00,
2013-03-30 17:03:00,35.0,32.0,30.04,WSW,245,3.0,-999.0,89,-99.99,,,-99.99,,2013-03-30 22:03:00,
2013-03-30 17:13:00,35.0,32.0,30.04,WSW,245,3.0,-999.0,89,-99.99,,,-99.99,,2013-03-30 22:13:00,
2013-03-30 17:23:00,36.0,33.0,30.04,WSW,248,3.0,-999.0,87,-99.99,,,-99.99,,2013-03-30 22:23:00,
2013-03-30 17:33:00,36.0,33.0,30.04,West,271,7.0,-999.0,87,-99.99,,,-99.99,,2013-03-30 22:33:00,
2013-03-30 17:43:00,36.0,33.0,30.04,West,271,7.0,-999.0,87,-99.99,,,-99.99,,2013-03-30 22:43:00,
2013-03-30 17:53:00,36.0,33.0,30.03,WSW,258,9.0,-999.0,88,-99.99,,,-99.99,,2013-03-30 22:53:00,
2013-03-30 18:02:00,36.0,33.0,30.03,West,265,8.0,-999.0,88,-99.99,,,-99.99,,2013-03-30 23:02:00,
2013-03-30 18:12:00,36.0,33.0,30.03,West,265,8.0,-999.0,88,-99.99,,,-99.99,,2013-03-30 23:12:00,
2013-03-30 18:22:00,36.0,33.0,30.02,West,276,10.0,-999.0,88,-99.99,,,-99.99,,2013-03-30 23:22:00,
2013-03-30 18:32:00,36.0,33.0,30.01,West,271,13.0,-999.0,89,-99.99,,,-99.99,,2013-03-30 23:32:00,
2013-03-30 18:42:00,36.0,33.0,30.01,West,271,13.0,-999.0,89,-99.99,,,-99.99,,2013-03-30 23:42:00,
2013-03-30 18:52:00,36.0,33.0,30.01,WNW,286,14.0,-999.0,88,-99.99,,,-99.99,,2013-03-30 23:52:00,
2013-03-30 19:02:00,36.0,33.0,30.01,West,276,14.0,-999.0,89,-99.99,,,-99.99,,2013-03-31 00:02:00,
2013-03-30 19:12:00,36.0,33.0,30.01,West,276,14.0,-999.0,89,-99.99,,,-99.99,,2013-03-31 00:12:00,
2013-03-30 19:22:00,36.0,33.0,30.01,WNW,290,15.0,-999.0,89,-99.99,,,-99.99,,2013-03-31 00:22:00,
2013-03-30 19:32:00,35.0,32.0,30.01,WNW,292,17.0,-999.0,89,-99.99,,,-99.99,,2013-03-31 00:32:00,
2013-03-30 19:42:00,35.0,32.0,30.01,WNW,292,17.0,-999.0,89,-99.99,,,-99.99,,2013-03-31 00:42:00,
2013-03-30 19:52:00,35.0,32.0,30.00,WNW,292,18.0,-999.0,89,-99.99,,,-99.99,,2013-03-31 00:52:00,
2013-03-30 20:02:00,34.0,31.0,30.00,WNW,292,19.0,-999.0,89,-99.99,,,-99.99,,2013-03-31 01:02:00,
2013-03-30 20:12:00,34.0,31.0,30.00,WNW,292,19.0,-999.0,89,-99.99,,,-99.99,,2013-03-31 01:12:00,
2013-03-30 20:22:00,34.0,31.0,30.00,WNW,286,19.0,-999.0,89,-99.99,,,-99.99,,2013-03-31 01:22:00,
2013-03-30 20:32:00,33.0,30.0,30.00,WNW,291,20.0,-999.0,88,-99.99,,,-99.99,,2013-03-31 01:32:00,
2013-03-30 20:42:00,33.0,30.0,30.00,WNW,291,20.0,-999.0,88,-99.99,,,-99.99,,2013-03-31 01:42:00,
2013-03-30 20:52:00,33.0,30.0,30.00,WNW,290,20.0,-999.0,87,-99.99,,,-99.99,,2013-03-31 01:52:00,
2013-03-30 21:02:00,33.0,29.0,30.01,WNW,290,21.0,-999.0,85,-99.99,,,-99.99,,2013-03-31 02:02:00,
2013-03-30 21:13:00,33.0,29.0,30.01,WNW,290,21.0,-999.0,85,-99.99,,,-99.99,,2013-03-31 02:13:00,
2013-03-30 21:22:00,32.0,28.0,30.01,WNW,286,22.0,-999.0,84,-99.99,,,-99.99,,2013-03-31 02:22:00,
2013-03-30 21:32:00,32.0,28.0,30.01,WNW,301,22.0,-999.0,84,-99.99,,,-99.99,,2013-03-31 02:32:00,
2013-03-30 21:43:00,32.0,28.0,30.01,WNW,301,22.0,-999.0,84,-99.99,,,-99.99,,2013-03-31 02:43:00,
2013-03-30 21:52:00,31.0,27.0,30.02,NW,317,22.0,-999.0,85,-99.99,,,-99.99,,2013-03-31 02:52:00,
2013-03-30 22:02:00,31.0,27.0,30.03,WNW,300,22.0,-999.0,86,-99.99,,,-99.99,,2013-03-31 03:02:00,
2013-03-30 22:12:00,31.0,27.0,30.03,WNW,300,22.0,-999.0,86,-99.99,,,-99.99,,2013-03-31 03:12:00,
2013-03-30 22:22:00,31.0,27.0,30.03,WNW,292,22.0,-999.0,86,-99.99,,,-99.99,,2013-03-31 03:22:00,
2013-03-30 22:33:00,30.0,26.0,30.03,WNW,300,22.0,-999.0,86,-99.99,,,-99.99,,2013-03-31 03:33:00,
2013-03-30 22:43:00,30.0,26.0,30.03,WNW,300,22.0,-999.0,86,-99.99,,,-99.99,,2013-03-31 03:43:00,
2013-03-30 22:53:00,30.0,26.0,30.03,NW,313,24.0,-999.0,86,-99.99,,,-99.99,,2013-03-31 03:53:00,
2013-03-30 23:03:00,29.0,-99.9,30.04,WNW,302,23.0,-999.0,87,-99.99,,,-99.99,,2013-03-31 04:03:00,
2013-03-30 23:13:00,29.0,26.0,30.04,WNW,302,23.0,-999.0,87,-99.99,,,-99.99,,2013-03-31 04:13:00,
2013-03-30 23:23:00,29.0,26.0,30.05,WNW,287,22.0,-999.0,87,-99.99,,,-99.99,,2013-03-31 04:23:00,
2013-03-30 23:32:00,29.0,26.0,30.05,WNW,295,21.0,-999.0,87,-99.99,,,-99.99,,2013-03-31 04:32:00,
2013-03-30 23:42:00,29.0,26.0,30.05,WNW,295,21.0,-999.0,87,-99.99,,,-99.99,,2013-03-31 04:42:00,
2013-03-30 23:52:00,28.0,25.0,30.06,WNW,301,19.0,-999.0,87,-99.99,,,-99.99,,2013-03-31 04:52:00,